| time (UTC) | temp F | wind direction | speed MPH | gust MPH | rain 1hr in | rain 24hr in | rain mn in | humidity % | barometer mb |
| 20260507042603 | 63 | 295 | 8.0 | 12.0 | 0.00 | 0.00 | 0.00 | 54 | 1013.6 |
| 20260507042103 | 62 | 293 | 6.0 | 10.0 | 0.00 | 0.00 | 0.00 | 54 | 1013.8 |
| 20260507041602 | 62 | 289 | 7.0 | 14.0 | 0.00 | 0.00 | 0.00 | 54 | 1013.9 |
| 20260507041103 | 62 | 295 | 6.0 | 10.0 | 0.00 | 0.00 | 0.00 | 56 | 1014.1 |
| 20260507040602 | 61 | 283 | 9.0 | 15.0 | 0.00 | 0.00 | 0.00 | 58 | 1014.3 |
| 20260507040103 | 59 | 274 | 5.0 | 6.0 | 0.00 | 0.00 | 0.00 | 62 | 1014.4 |
| 20260507035103 | 59 | 241 | 3.0 | 3.0 | 0.00 | 0.00 | 0.00 | 67 | 1014.4 |
| 20260507034603 | 59 | 242 | 2.0 | 3.0 | 0.00 | 0.00 | 0.00 | 66 | 1014.4 |
| 20260507033603 | 59 | 245 | 2.0 | 3.0 | 0.00 | 0.00 | 0.00 | 66 | 1014.3 |
| 20260507033103 | 60 | 261 | 2.0 | 3.0 | 0.00 | 0.00 | 0.00 | 67 | 1014.2 |
| 20260507032603 | 60 | 267 | 2.0 | 3.0 | 0.00 | 0.00 | 0.00 | 64 | 1014.2 |
| 20260507031603 | 62 | 271 | 2.0 | 5.0 | 0.00 | 0.00 | 0.00 | 62 | 1014.0 |
| 20260507031102 | 62 | 272 | 5.0 | 6.0 | 0.00 | 0.00 | 0.00 | 58 | 1014.1 |
| 20260507030603 | 62 | 278 | 5.0 | 5.0 | 0.00 | 0.00 | 0.00 | 58 | 1014.3 |
| 20260507025103 | 62 | 278 | 1.0 | 2.0 | 0.00 | 0.00 | 0.00 | 60 | 1014.2 |
| 20260507024604 | 62 | 278 | 2.0 | 3.0 | 0.00 | 0.00 | 0.00 | 61 | 1014.1 |
| 20260507023603 | 63 | 278 | 3.0 | 3.0 | 0.00 | 0.00 | 0.00 | 57 | 1014.2 |
| 20260507022602 | 63 | 278 | 2.0 | 3.0 | 0.00 | 0.00 | 0.00 | 59 | 1014.3 |
| 20260507022102 | 63 | 277 | 5.0 | 5.0 | 0.00 | 0.00 | 0.00 | 60 | 1014.4 |
| 20260507021603 | 63 | 277 | 3.0 | 6.0 | 0.00 | 0.00 | 0.00 | 61 | 1014.3 |
| 20260507021103 | 63 | 276 | 5.0 | 6.0 | 0.00 | 0.00 | 0.00 | 60 | 1014.5 |
| 20260507020603 | 64 | 277 | 5.0 | 7.0 | 0.00 | 0.00 | 0.00 | 60 | 1014.6 |
| 20260507015603 | 65 | 290 | 1.0 | 2.0 | 0.00 | 0.00 | 0.00 | 58 | 1014.6 |
| 20260507015104 | 65 | 291 | 1.0 | 3.0 | 0.00 | 0.00 | 0.00 | 58 | 1014.6 |
| 20260507014602 | 65 | 293 | 1.0 | 3.0 | 0.00 | 0.00 | 0.00 | 57 | 1014.6 |
| 20260507014103 | 65 | 320 | 2.0 | 5.0 | 0.00 | 0.00 | 0.00 | 55 | 1014.6 |
| 20260507013103 | 66 | 297 | 3.0 | 6.0 | 0.00 | 0.00 | 0.00 | 58 | 1014.4 |
| 20260507012603 | 66 | 287 | 2.0 | 3.0 | 0.00 | 0.00 | 0.00 | 57 | 1014.4 |
| 20260507012102 | 66 | 294 | 1.0 | 3.0 | 0.00 | 0.00 | 0.00 | 57 | 1014.4 |
| 20260507011102 | 67 | 296 | 4.0 | 8.0 | 0.00 | 0.00 | 0.00 | 55 | 1015.0 |
| 20260507010603 | 67 | 350 | 3.0 | 9.0 | 0.00 | 0.00 | 0.00 | 55 | 1015.1 |
| 20260507005603 | 67 | 303 | 3.0 | 12.0 | 0.00 | 0.00 | 0.00 | 53 | 1015.1 |
| 20260507005103 | 68 | 292 | 7.0 | 10.0 | 0.00 | 0.00 | 0.00 | 53 | 1014.9 |
| 20260507004603 | 69 | 270 | 2.0 | 3.0 | 0.00 | 0.00 | 0.00 | 53 | 1014.9 |
| 20260507004103 | 69 | 309 | 2.0 | 6.0 | 0.00 | 0.00 | 0.00 | 51 | 1014.9 |
| 20260507003602 | 69 | 6 | 2.0 | 7.0 | 0.00 | 0.00 | 0.00 | 52 | 1014.9 |
| 20260507003103 | 70 | 303 | 2.0 | 7.0 | 0.00 | 0.00 | 0.00 | 52 | 1014.6 |
| 20260507002603 | 70 | 299 | 3.0 | 6.0 | 0.00 | 0.00 | 0.00 | 53 | 1014.6 |
| 20260507002103 | 70 | 323 | 3.0 | 9.0 | 0.00 | 0.00 | 0.00 | 52 | 1014.6 |
| 20260507001602 | 70 | 330 | 3.0 | 8.0 | 0.00 | 0.00 | 0.00 | 53 | 1014.5 |
| 20260507001103 | 70 | 309 | 5.0 | 9.0 | 0.00 | 0.00 | 0.00 | 52 | 1014.6 |
| 20260506235103 | 71 | 313 | 4.0 | 9.0 | 0.00 | 0.00 | 0.00 | 53 | 1014.5 |
| 20260506234603 | 71 | 324 | 6.0 | 13.0 | 0.00 | 0.00 | 0.00 | 51 | 1014.5 |
| 20260506234103 | 72 | 331 | 5.0 | 10.0 | 0.00 | 0.00 | 0.00 | 53 | 1014.3 |
| 20260506233603 | 72 | 351 | 5.0 | 12.0 | 0.00 | 0.00 | 0.00 | 52 | 1014.2 |
| 20260506233103 | 73 | 307 | 3.0 | 9.0 | 0.00 | 0.00 | 0.00 | 52 | 1014.2 |
| 20260506232603 | 73 | 301 | 2.0 | 8.0 | 0.00 | 0.00 | 0.00 | 54 | 1014.2 |
| 20260506232103 | 73 | 297 | 7.0 | 12.0 | 0.00 | 0.00 | 0.00 | 52 | 1014.3 |
| 20260506231603 | 73 | 338 | 4.0 | 12.0 | 0.00 | 0.00 | 0.00 | 53 | 1014.2 |
| 20260506231102 | 72 | 291 | 4.0 | 10.0 | 0.00 | 0.00 | 0.00 | 53 | 1014.2 |
| 20260506230603 | 72 | 328 | 4.0 | 9.0 | 0.00 | 0.00 | 0.00 | 55 | 1014.2 |
| 20260506225602 | 72 | 341 | 3.0 | 10.0 | 0.00 | 0.00 | 0.00 | 53 | 1014.3 |
| 20260506225103 | 72 | 323 | 3.0 | 13.0 | 0.00 | 0.00 | 0.00 | 54 | 1014.4 |
| 20260506224603 | 73 | 302 | 3.0 | 12.0 | 0.00 | 0.00 | 0.00 | 52 | 1014.3 |
| 20260506224103 | 72 | 326 | 3.0 | 10.0 | 0.00 | 0.00 | 0.00 | 53 | 1014.6 |
| 20260506223602 | 72 | 320 | 5.0 | 10.0 | 0.00 | 0.00 | 0.00 | 54 | 1014.7 |
| 20260506223102 | 72 | 340 | 4.0 | 10.0 | 0.00 | 0.00 | 0.00 | 53 | 1014.8 |
| 20260506222603 | 72 | 331 | 4.0 | 12.0 | 0.00 | 0.00 | 0.00 | 54 | 1014.9 |
| 20260506222103 | 71 | 293 | 5.0 | 12.0 | 0.00 | 0.00 | 0.00 | 53 | 1014.9 |
| 20260506221603 | 71 | 301 | 3.0 | 9.0 | 0.00 | 0.00 | 0.00 | 52 | 1014.9 |
| 20260506221103 | 72 | 319 | 6.0 | 12.0 | 0.00 | 0.00 | 0.00 | 52 | 1015.0 |
| 20260506220603 | 72 | 340 | 6.0 | 13.0 | 0.00 | 0.00 | 0.00 | 52 | 1015.0 |
| 20260506215602 | 72 | 334 | 4.0 | 12.0 | 0.00 | 0.00 | 0.00 | 52 | 1015.2 |
| 20260506215104 | 71 | 343 | 6.0 | 13.0 | 0.00 | 0.00 | 0.00 | 51 | 1015.5 |
| 20260506214102 | 71 | 332 | 5.0 | 12.0 | 0.00 | 0.00 | 0.00 | 50 | 1015.4 |
| 20260506213603 | 72 | 333 | 4.0 | 10.0 | 0.00 | 0.00 | 0.00 | 52 | 1015.2 |
| 20260506213102 | 72 | 308 | 5.0 | 10.0 | 0.00 | 0.00 | 0.00 | 51 | 1015.2 |
| 20260506212603 | 71 | 315 | 4.0 | 12.0 | 0.00 | 0.00 | 0.00 | 52 | 1015.3 |
| 20260506212103 | 72 | 308 | 6.0 | 13.0 | 0.00 | 0.00 | 0.00 | 49 | 1015.3 |
| 20260506211603 | 72 | 338 | 3.0 | 13.0 | 0.00 | 0.00 | 0.00 | 52 | 1015.2 |
| 20260506211102 | 72 | 314 | 5.0 | 12.0 | 0.00 | 0.00 | 0.00 | 50 | 1015.3 |
| 20260506210603 | 72 | 340 | 5.0 | 10.0 | 0.00 | 0.00 | 0.00 | 51 | 1015.0 |
| 20260506205602 | 72 | 12 | 3.0 | 12.0 | 0.00 | 0.00 | 0.00 | 52 | 1015.1 |
| 20260506205103 | 71 | 351 | 3.0 | 12.0 | 0.00 | 0.00 | 0.00 | 54 | 1015.1 |
| 20260506204603 | 70 | 304 | 3.0 | 10.0 | 0.00 | 0.00 | 0.00 | 56 | 1015.5 |
| 20260506204103 | 69 | 291 | 6.0 | 15.0 | 0.00 | 0.00 | 0.00 | 53 | 1015.6 |
| 20260506203102 | 70 | 284 | 9.0 | 16.0 | 0.00 | 0.00 | 0.00 | 48 | 1015.8 |
| 20260506202603 | 71 | 325 | 6.0 | 12.0 | 0.00 | 0.00 | 0.00 | 53 | 1015.6 |
| 20260506202102 | 71 | 293 | 5.0 | 10.0 | 0.00 | 0.00 | 0.00 | 51 | 1015.6 |
| 20260506201602 | 71 | 314 | 3.0 | 7.0 | 0.00 | 0.00 | 0.00 | 53 | 1015.6 |
| 20260506200603 | 70 | 341 | 5.0 | 10.0 | 0.00 | 0.00 | 0.00 | 55 | 1015.4 |
| 20260506195603 | 70 | 307 | 4.0 | 8.0 | 0.00 | 0.00 | 0.00 | 55 | 1015.5 |
| 20260506195103 | 69 | 287 | 3.0 | 7.0 | 0.00 | 0.00 | 0.00 | 56 | 1015.5 |
| 20260506194603 | 69 | 314 | 6.0 | 14.0 | 0.00 | 0.00 | 0.00 | 56 | 1015.8 |
| 20260506194103 | 70 | 290 | 6.0 | 12.0 | 0.00 | 0.00 | 0.00 | 49 | 1015.6 |
| 20260506193603 | 70 | 296 | 3.0 | 6.0 | 0.00 | 0.00 | 0.00 | 55 | 1015.7 |
| 20260506193103 | 70 | 296 | 3.0 | 7.0 | 0.00 | 0.00 | 0.00 | 54 | 1015.7 |
| 20260506192602 | 70 | 289 | 3.0 | 7.0 | 0.00 | 0.00 | 0.00 | 55 | 1015.7 |
| 20260506192102 | 70 | 326 | 3.0 | 8.0 | 0.00 | 0.00 | 0.00 | 53 | 1015.9 |
| 20260506191603 | 70 | 298 | 4.0 | 10.0 | 0.00 | 0.00 | 0.00 | 53 | 1015.9 |
| 20260506191103 | 70 | 287 | 3.0 | 6.0 | 0.00 | 0.00 | 0.00 | 55 | 1015.9 |
| 20260506190602 | 70 | 287 | 3.0 | 7.0 | 0.00 | 0.00 | 0.00 | 56 | 1016.1 |
| 20260506185602 | 70 | 321 | 2.0 | 10.0 | 0.00 | 0.00 | 0.00 | 57 | 1015.9 |
| 20260506185102 | 70 | 330 | 2.0 | 6.0 | 0.00 | 0.00 | 0.00 | 55 | 1016.0 |
| 20260506184603 | 70 | 322 | 3.0 | 7.0 | 0.00 | 0.00 | 0.00 | 54 | 1016.1 |
| 20260506183602 | 69 | 306 | 3.0 | 6.0 | 0.00 | 0.00 | 0.00 | 54 | 1016.2 |
| 20260506183103 | 70 | 342 | 3.0 | 6.0 | 0.00 | 0.00 | 0.00 | 53 | 1016.3 |
| 20260506182102 | 70 | 318 | 2.0 | 5.0 | 0.00 | 0.00 | 0.00 | 55 | 1016.2 |
| 20260506181603 | 70 | 301 | 4.0 | 7.0 | 0.00 | 0.00 | 0.00 | 52 | 1016.3 |
| 20260506175103 | 68 | 60 | 2.0 | 6.0 | 0.00 | 0.00 | 0.00 | 63 | 1016.6 |
| 20260506174602 | 67 | 27 | 1.0 | 3.0 | 0.00 | 0.00 | 0.00 | 61 | 1016.5 |
| 20260506174103 | 66 | 30 | 4.0 | 7.0 | 0.00 | 0.00 | 0.00 | 61 | 1016.6 |
| 20260506173103 | 66 | 47 | 3.0 | 6.0 | 0.00 | 0.00 | 0.00 | 62 | 1016.6 |
| 20260506172603 | 65 | 58 | 4.0 | 7.0 | 0.00 | 0.00 | 0.00 | 61 | 1016.9 |
| 20260506172102 | 64 | 18 | 2.0 | 6.0 | 0.00 | 0.00 | 0.00 | 62 | 1016.9 |
| 20260506171603 | 64 | 86 | 2.0 | 7.0 | 0.00 | 0.00 | 0.00 | 62 | 1016.8 |
| 20260506171102 | 63 | 110 | 3.0 | 7.0 | 0.00 | 0.00 | 0.00 | 60 | 1016.2 |
| 20260506170603 | 63 | 101 | 2.0 | 6.0 | 0.00 | 0.00 | 0.00 | 62 | 1016.0 |
| 20260506170103 | 63 | 90 | 4.0 | 7.0 | 0.00 | 0.00 | 0.00 | 63 | 1016.0 |
| 20260506165103 | 62 | 92 | 6.0 | 10.0 | 0.00 | 0.00 | 0.00 | 63 | 1016.2 |
| 20260506163602 | 61 | 103 | 6.0 | 8.0 | 0.00 | 0.00 | 0.00 | 69 | 1016.3 |
| 20260506163103 | 60 | 96 | 6.0 | 9.0 | 0.00 | 0.00 | 0.00 | 67 | 1016.6 |
| 20260506162603 | 60 | 92 | 7.0 | 9.0 | 0.00 | 0.00 | 0.00 | 67 | 1016.6 |
| 20260506162103 | 59 | 94 | 7.0 | 10.0 | 0.00 | 0.00 | 0.00 | 66 | 1016.7 |
| 20260506161603 | 59 | 91 | 7.0 | 10.0 | 0.00 | 0.00 | 0.00 | 67 | 1016.8 |
| 20260506161104 | 59 | 93 | 6.0 | 9.0 | 0.00 | 0.00 | 0.00 | 68 | 1016.5 |
| 20260506155603 | 58 | 95 | 5.0 | 7.0 | 0.00 | 0.00 | 0.00 | 69 | 1016.3 |
| 20260506155103 | 58 | 96 | 5.0 | 6.0 | 0.00 | 0.00 | 0.00 | 68 | 1016.4 |
| 20260506154603 | 58 | 103 | 5.0 | 7.0 | 0.00 | 0.00 | 0.00 | 69 | 1016.4 |
| 20260506154103 | 58 | 102 | 5.0 | 7.0 | 0.00 | 0.00 | 0.00 | 68 | 1016.4 |
| 20260506153603 | 57 | 86 | 6.0 | 7.0 | 0.00 | 0.00 | 0.00 | 68 | 1016.4 |
| 20260506152603 | 57 | 87 | 5.0 | 6.0 | 0.00 | 0.00 | 0.00 | 69 | 1016.6 |
| 20260506152103 | 57 | 86 | 5.0 | 6.0 | 0.00 | 0.00 | 0.00 | 67 | 1016.6 |
| 20260506151603 | 56 | 93 | 3.0 | 5.0 | 0.00 | 0.00 | 0.00 | 66 | 1016.6 |
| 20260506151103 | 56 | 93 | 5.0 | 6.0 | 0.00 | 0.00 | 0.00 | 66 | 1016.4 |
| 20260506150603 | 56 | 95 | 3.0 | 6.0 | 0.00 | 0.00 | 0.00 | 68 | 1016.3 |
| 20260506145603 | 56 | 115 | 3.0 | 3.0 | 0.00 | 0.00 | 0.00 | 67 | 1016.4 |
| 20260506145102 | 55 | 115 | 3.0 | 3.0 | 0.00 | 0.00 | 0.00 | 67 | 1016.7 |
| 20260506144103 | 54 | 115 | 3.0 | 3.0 | 0.00 | 0.00 | 0.00 | 69 | 1016.7 |
| 20260506143603 | 54 | 115 | 3.0 | 3.0 | 0.00 | 0.00 | 0.00 | 69 | 1016.7 |
| 20260506142603 | 53 | 115 | 3.0 | 5.0 | 0.00 | 0.00 | 0.00 | 68 | 1017.0 |
| 20260506142102 | 53 | 116 | 3.0 | 3.0 | 0.00 | 0.00 | 0.00 | 71 | 1017.0 |
| 20260506141603 | 52 | 116 | 3.0 | 3.0 | 0.00 | 0.00 | 0.00 | 69 | 1017.1 |
| 20260506140602 | 51 | 116 | 2.0 | 3.0 | 0.00 | 0.00 | 0.00 | 73 | 1016.5 |
| 20260506135602 | 50 | 116 | 2.0 | 3.0 | 0.00 | 0.00 | 0.00 | 71 | 1016.7 |
| 20260506135102 | 49 | 116 | 2.0 | 3.0 | 0.00 | 0.00 | 0.00 | 73 | 1016.7 |
| 20260506134602 | 48 | 116 | 2.0 | 3.0 | 0.00 | 0.00 | 0.00 | 73 | 1017.0 |
| 20260506134103 | 48 | 115 | 2.0 | 3.0 | 0.00 | 0.00 | 0.00 | 73 | 1016.9 |
| 20260506133603 | 47 | 116 | 3.0 | 3.0 | 0.00 | 0.00 | 0.00 | 73 | 1016.9 |
| 20260506132603 | 47 | 116 | 2.0 | 3.0 | 0.00 | 0.00 | 0.00 | 70 | 1016.8 |
| 20260506132102 | 46 | 116 | 3.0 | 3.0 | 0.00 | 0.00 | 0.00 | 69 | 1017.0 |
| 20260506131103 | 46 | 116 | 2.0 | 3.0 | 0.00 | 0.00 | 0.00 | 70 | 1016.9 |
| 20260506130603 | 46 | 116 | 3.0 | 3.0 | 0.00 | 0.00 | 0.00 | 69 | 1016.7 |
| 20260506125103 | 46 | 116 | 1.0 | 3.0 | 0.00 | 0.00 | 0.00 | 69 | 1016.7 |
| 20260506124603 | 45 | 116 | 3.0 | 3.0 | 0.00 | 0.00 | 0.00 | 69 | 1016.7 |
| 20260506124102 | 45 | 116 | 2.0 | 3.0 | 0.00 | 0.00 | 0.00 | 70 | 1016.6 |
| 20260506123603 | 44 | 116 | 3.0 | 3.0 | 0.00 | 0.00 | 0.00 | 70 | 1016.8 |
| 20260506123103 | 44 | 116 | 3.0 | 5.0 | 0.00 | 0.00 | 0.00 | 72 | 1016.8 |
| 20260506122603 | 44 | 116 | 2.0 | 3.0 | 0.00 | 0.00 | 0.00 | 72 | 1016.8 |
| 20260506122103 | 44 | 116 | 3.0 | 3.0 | 0.00 | 0.00 | 0.00 | 72 | 1016.7 |
| 20260506121104 | 44 | 116 | 1.0 | 2.0 | 0.00 | 0.00 | 0.00 | 72 | 1016.7 |
| 20260506120603 | 44 | 116 | 1.0 | 2.0 | 0.00 | 0.00 | 0.00 | 72 | 1016.5 |
| 20260506115603 | 44 | 116 | 2.0 | 3.0 | 0.00 | 0.00 | 0.00 | 71 | 1016.4 |
| 20260506115103 | 44 | 116 | 1.0 | 2.0 | 0.00 | 0.00 | 0.00 | 71 | 1016.0 |
| 20260506114103 | 46 | 116 | 1.0 | 2.0 | 0.00 | 0.00 | 0.00 | 69 | 1016.2 |
| 20260506113103 | 46 | 115 | 4.0 | 5.0 | 0.00 | 0.00 | 0.00 | 69 | 1016.2 |
| 20260506112603 | 46 | 115 | 5.0 | 5.0 | 0.00 | 0.00 | 0.00 | 69 | 1016.2 |
| 20260506111103 | 45 | 115 | 5.0 | 5.0 | 0.00 | 0.00 | 0.00 | 71 | 1016.3 |
| 20260506110603 | 45 | 115 | 5.0 | 6.0 | 0.00 | 0.00 | 0.00 | 70 | 1016.5 |
| 20260506105603 | 46 | 117 | 6.0 | 7.0 | 0.00 | 0.00 | 0.00 | 69 | 1016.4 |
| 20260506104603 | 45 | 123 | 3.0 | 5.0 | 0.00 | 0.00 | 0.00 | 71 | 1016.4 |
| 20260506104103 | 45 | 176 | 2.0 | 3.0 | 0.00 | 0.00 | 0.00 | 70 | 1016.4 |
| 20260506103602 | 45 | 176 | 2.0 | 5.0 | 0.00 | 0.00 | 0.00 | 71 | 1016.4 |
| 20260506103104 | 44 | 185 | 4.0 | 5.0 | 0.00 | 0.00 | 0.00 | 72 | 1016.6 |
| 20260506102603 | 44 | 195 | 3.0 | 5.0 | 0.00 | 0.00 | 0.00 | 72 | 1016.4 |
| 20260506102103 | 44 | 195 | 3.0 | 3.0 | 0.00 | 0.00 | 0.00 | 72 | 1016.5 |
| 20260506101603 | 44 | 222 | 2.0 | 3.0 | 0.00 | 0.00 | 0.00 | 74 | 1016.5 |
| 20260506101103 | 44 | 223 | 1.0 | 2.0 | 0.00 | 0.00 | 0.00 | 74 | 1016.4 |
| 20260506100603 | 44 | 223 | 2.0 | 3.0 | 0.00 | 0.00 | 0.00 | 74 | 1016.2 |
| 20260506095602 | 44 | 223 | 0.0 | 0.0 | 0.00 | 0.00 | 0.00 | 75 | 1016.1 |
| 20260506095102 | 43 | 223 | 0.0 | 1.0 | 0.00 | 0.00 | 0.00 | 75 | 1016.1 |
| 20260506094603 | 44 | 224 | 2.0 | 3.0 | 0.00 | 0.00 | 0.00 | 75 | 1016.2 |
| 20260506094103 | 45 | 224 | 2.0 | 3.0 | 0.00 | 0.00 | 0.00 | 72 | 1015.9 |
| 20260506093603 | 45 | 224 | 1.0 | 2.0 | 0.00 | 0.00 | 0.00 | 72 | 1015.9 |
| 20260506093103 | 46 | 223 | 2.0 | 3.0 | 0.00 | 0.00 | 0.00 | 70 | 1015.8 |
| 20260506092603 | 46 | 223 | 1.0 | 2.0 | 0.00 | 0.00 | 0.00 | 69 | 1015.8 |
| 20260506092103 | 46 | 224 | 1.0 | 3.0 | 0.00 | 0.00 | 0.00 | 69 | 1015.8 |
| 20260506091603 | 47 | 223 | 0.0 | 3.0 | 0.00 | 0.00 | 0.00 | 69 | 1015.5 |
| 20260506091102 | 47 | 223 | 0.0 | 0.0 | 0.00 | 0.00 | 0.00 | 68 | 1015.4 |
| 20260506090603 | 49 | 224 | 1.0 | 2.0 | 0.00 | 0.00 | 0.00 | 65 | 1015.3 |
| 20260506090103 | 49 | 224 | 1.0 | 2.0 | 0.00 | 0.00 | 0.00 | 63 | 1015.0 |
| 20260506085603 | 49 | 223 | 1.0 | 2.0 | 0.00 | 0.00 | 0.00 | 63 | 1015.3 |
| 20260506085103 | 49 | 224 | 1.0 | 2.0 | 0.00 | 0.00 | 0.00 | 63 | 1015.4 |
| 20260506084602 | 50 | 224 | 1.0 | 2.0 | 0.00 | 0.00 | 0.00 | 61 | 1015.2 |
| 20260506084103 | 50 | 224 | 2.0 | 2.0 | 0.00 | 0.00 | 0.00 | 62 | 1015.2 |
| 20260506083603 | 50 | 226 | 1.0 | 3.0 | 0.00 | 0.00 | 0.00 | 62 | 1015.2 |
| 20260506083103 | 50 | 228 | 0.0 | 2.0 | 0.00 | 0.00 | 0.00 | 62 | 1015.1 |
| 20260506081603 | 49 | 228 | 1.0 | 3.0 | 0.00 | 0.00 | 0.00 | 64 | 1015.3 |
| 20260506081103 | 48 | 229 | 1.0 | 2.0 | 0.00 | 0.00 | 0.00 | 66 | 1015.3 |
| 20260506080603 | 47 | 229 | 0.0 | 0.0 | 0.00 | 0.00 | 0.00 | 67 | 1015.5 |
| 20260506073103 | 45 | 229 | 3.0 | 3.0 | 0.00 | 0.00 | 0.00 | 77 | 1015.7 |
| 20260506072603 | 45 | 228 | 3.0 | 3.0 | 0.00 | 0.00 | 0.00 | 75 | 1015.6 |
| 20260506072103 | 46 | 247 | 2.0 | 3.0 | 0.00 | 0.00 | 0.00 | 73 | 1015.5 |
| 20260506071103 | 47 | 247 | 1.0 | 2.0 | 0.00 | 0.00 | 0.00 | 72 | 1015.5 |
| 20260506070603 | 47 | 247 | 1.0 | 2.0 | 0.00 | 0.00 | 0.00 | 71 | 1015.8 |
| 20260506070103 | 48 | 247 | 2.0 | 2.0 | 0.00 | 0.00 | 0.00 | 70 | 1015.8 |
| 20260506062103 | 48 | 247 | 1.0 | 3.0 | 0.00 | 0.00 | 0.00 | 70 | 1015.3 |
| 20260506061603 | 47 | 247 | 2.0 | 3.0 | 0.00 | 0.00 | 0.00 | 71 | 1015.2 |
| 20260506060603 | 47 | 247 | 2.0 | 3.0 | 0.00 | 0.00 | 0.00 | 75 | 1015.7 |
| 20260506051103 | 53 | 296 | 0.0 | 0.0 | 0.00 | 0.00 | 0.00 | 55 | 1014.9 |
| 20260506050602 | 54 | 296 | 0.0 | 0.0 | 0.00 | 0.00 | 0.00 | 57 | 1015.2 |
| 20260506050103 | 55 | 296 | 0.0 | 0.0 | 0.00 | 0.00 | 0.00 | 56 | 1014.9 |
| 20260506045103 | 55 | 296 | 0.0 | 0.0 | 0.00 | 0.00 | 0.00 | 52 | 1014.7 |
| 20260506044603 | 55 | 296 | 0.0 | 1.0 | 0.00 | 0.00 | 0.00 | 52 | 1014.7 |
| 20260506044103 | 54 | 296 | 1.0 | 1.0 | 0.00 | 0.00 | 0.00 | 53 | 1014.9 |
| 20260506043603 | 53 | 296 | 0.0 | 2.0 | 0.00 | 0.00 | 0.00 | 55 | 1014.9 |
| 20260506043103 | 54 | 296 | 0.0 | 2.0 | 0.00 | 0.00 | 0.00 | 58 | 1015.0 |